Overview Statistics Trail Chart Weather Telemetry Raw packets
 

This is the latest recevied weather packets stored in our database for station/object K4XP. If no packets are shown the sender has not sent any weather packets the latest 10 day(s).

<< 58 59 60 61 62 63 64 >>
Time Temp. Humidity Pressure Rain* Wind** Luminosity Snow
1788202226 32.78° C 56% 1020 hPa 0 mm - - -
1788201937 32.78° C 55% 1020 hPa 0 mm - - -
1788201616 32.78° C 59% 1020 hPa 0 mm - - -
1788201318 32.22° C 55% 1020.1 hPa 0 mm - - -
1788201028 32.22° C 59% 1020.2 hPa 0 mm - - -
1788200727 32.22° C 57% 1020.3 hPa 0 mm - - -
1788200426 32.22° C 57% 1020.4 hPa 0 mm - - -
1788200116 31.67° C 63% 1020.4 hPa 0 mm - - -
1788199822 31.67° C 59% 1020.4 hPa 0 mm - - -
1788199523 31.67° C 62% 1020.4 hPa 0 mm - - -
1788199214 31.11° C 61% 1020.6 hPa 0 mm - - -
1788198915 31.67° C 61% 1020.6 hPa 0 mm - - -
1788198624 31.11° C 61% 1020.7 hPa 0 mm - - -
1788198326 31.11° C 62% 1020.8 hPa 0 mm - - -
1788198015 31.11° C 66% 1020.8 hPa 0 mm - - -
1788197718 30.56° C 63% 1020.8 hPa 0 mm - - -
1788197427 30.56° C 64% 1020.9 hPa 0 mm - - -
1788197111 30.56° C 65% 1020.8 hPa 0 mm - - -
1788196818 30.56° C 64% 1020.9 hPa 0 mm - - -
1788196520 30.56° C 69% 1020.8 hPa 0 mm - - -
1788196228 30° C 66% 1020.8 hPa 0 mm - - -
1788195929 30° C 68% 1021 hPa 0 mm - - -
1788195620 30° C 67% 1021 hPa 0 mm - - -
1788195322 30° C 68% 1021 hPa 0 mm - - -
1788195029 30° C 65% 1021 hPa 0 mm - - -

* Rain latest hour (hover to see other rain measurements)
** Current wind speed in m/s (hover to see current wind gust speed)